Location: Maiden
(35.5760°N, 81.2120°W)
Time: 03:08:17
(UTC-04:00)

Resurs 01 Rocket - Pass Details

Date: 02 August 2020
Orbit: 635 x 644 km, 98.0° (Epoch: 11 August)

Event Time Altitude Azimuth Distance (km) Brightness Sun altitude
Exits shadow 21:14:02 12° 118° (ESE) 1,869 3.3 -9.4°
Maximum altitude 21:17:03 23° 69° (ENE) 1,342 2.9 -9.9°
Drops below altitude 10° 21:20:32 10° 17° (NNE) 2,027 4.4 -10.5°
Sets 21:23:04 0° 3° (N) 2,941 5.4 -11.0°
